Date String (YYYY-MM-DD hh:mm:ss) UTC,Instrument flags,Ambient pressure (hPa),Sample flow (lpm),Bypass flow (lpm),Sample temperature (°C),Ambient temperature (°C),ASC tube jacket temperature (°C),LED temperature (°C),Box temperature (°C),Sample RH (%),Span deviation,Mass concentration (μg/m³),Mass concentration (μg/m³),Mass concentration (μg/m³)
DateTimeUTC,F1_M11,P_M11,Q1_M11,Q2_M11,T1_M11,T2_M11,T3_M11,T4_M11,T5_M11,U1_M11,ZSPAN_M11,X0_M11,X2_M11,X1_M11
2022-04-09 14:00:00,,0819.7,5.01,0.00,27.0,25.9,00.0,35.9,28.8,08.1,0000.0,0005.94,0002.97,0002.04
2022-04-09 14:01:00,,0819.7,5.01,0.00,27.0,25.9,00.0,35.9,28.8,08.1,0000.0,0006.40,0003.07,0002.07
2022-04-09 14:02:00,,0819.7,4.99,0.00,27.0,26.0,00.0,35.9,28.8,08.0,0000.0,0006.61,0003.14,0002.08
2022-04-09 14:03:00,,0819.7,5.00,0.00,27.0,26.0,00.0,35.9,28.8,08.1,0000.0,0006.66,0003.15,0002.10
2022-04-09 14:04:00,,0819.6,5.01,0.00,27.0,26.0,00.0,36.0,28.8,08.1,0000.0,0006.87,0003.17,0002.12
2022-04-09 14:05:00,,0819.6,5.00,0.00,27.0,26.0,00.0,35.9,28.8,08.1,0000.0,0007.28,0003.17,0002.14
2022-04-09 14:06:00,,0819.5,4.99,0.00,27.0,26.0,00.0,35.9,28.7,08.1,0000.0,0007.12,0003.17,0002.16
2022-04-09 14:07:00,,0819.5,5.00,0.00,27.0,25.9,00.0,35.9,28.7,08.2,0000.0,0007.61,0003.19,0002.18
2022-04-09 14:08:00,,0819.5,5.02,0.00,27.0,25.9,00.0,36.0,28.8,08.3,0000.0,0007.61,0003.20,0002.19
2022-04-09 14:09:00,,0819.5,4.99,0.00,27.0,25.9,00.0,36.0,28.8,08.2,0000.0,0007.56,0003.20,0002.20
2022-04-09 14:10:00,,0819.5,5.00,0.00,27.0,25.9,00.0,36.0,28.8,08.2,0000.0,0007.60,0003.21,0002.22
2022-04-09 14:11:00,,0819.4,5.00,0.00,27.0,25.9,00.0,36.0,28.8,08.2,0000.0,0007.68,0003.24,0002.24
2022-04-09 14:12:00,,0819.4,5.00,0.00,27.0,26.0,00.0,36.0,28.8,08.3,0000.0,0007.37,0003.22,0002.25
2022-04-09 14:13:00,,0819.4,5.01,0.00,27.0,26.0,00.0,36.0,28.8,08.2,0000.0,0007.13,0003.21,0002.28
2022-04-09 14:14:00,,0819.4,5.01,0.00,27.0,26.0,00.0,36.0,28.8,08.3,0000.0,0007.06,0003.23,0002.30
2022-04-09 14:15:00,,0819.4,5.00,0.00,27.0,26.0,00.0,36.0,28.8,08.2,0000.0,0007.15,0003.23,0002.31
2022-04-09 14:16:00,,0819.4,5.00,0.00,27.0,26.0,00.0,36.0,28.8,08.3,0000.0,0007.53,0003.23,0002.30
2022-04-09 14:17:00,,0819.3,5.00,0.00,27.0,26.0,00.0,36.0,28.8,08.4,0000.0,0007.51,0003.25,0002.31
2022-04-09 14:18:00,,0819.3,4.99,0.00,27.1,26.0,00.0,36.0,28.8,08.4,0000.0,0006.79,0003.25,0002.32
2022-04-09 14:19:00,,0819.3,5.00,0.00,27.1,26.0,00.0,36.0,28.8,08.3,0000.0,0006.78,0003.25,0002.32
2022-04-09 14:20:00,,0819.2,5.00,0.00,27.1,26.0,00.0,36.0,28.8,08.3,0000.0,0006.71,0003.23,0002.31
2022-04-09 14:21:00,,0819.2,5.00,0.00,27.1,26.0,00.0,36.0,28.8,08.3,0000.0,0006.78,0003.24,0002.31
2022-04-09 14:22:00,,0819.3,5.01,0.00,27.1,26.0,00.0,36.0,28.8,08.2,0000.0,0007.34,0003.24,0002.31
2022-04-09 14:23:00,,0819.3,5.00,0.00,27.1,26.0,00.0,36.0,28.8,08.3,0000.0,0007.37,0003.23,0002.31
2022-04-09 14:24:00,,0819.2,4.97,0.00,27.1,26.0,00.0,36.0,28.8,08.3,0000.0,0007.48,0003.23,0002.29
2022-04-09 14:25:00,,0819.2,4.99,0.00,27.1,26.0,00.0,36.0,28.9,08.3,0000.0,0007.52,0003.22,0002.27
2022-04-09 14:26:00,,0819.2,5.00,0.00,27.1,26.0,00.0,36.0,28.8,08.3,0000.0,0007.88,0003.21,0002.25
2022-04-09 14:27:00,,0819.2,5.00,0.00,27.1,26.0,00.0,36.0,28.8,08.3,0000.0,0007.61,0003.22,0002.26
2022-04-09 14:28:00,,0819.2,5.01,0.00,27.1,26.0,00.0,36.0,28.8,08.3,0000.0,0008.08,0003.21,0002.24
2022-04-09 14:29:00,,0819.2,5.00,0.00,27.1,26.0,00.0,36.0,28.8,08.3,0000.0,0007.98,0003.18,0002.23
2022-04-09 14:30:00,,0819.2,4.99,0.00,27.1,26.0,00.0,36.0,28.8,08.2,0000.0,0007.91,0003.16,0002.22
2022-04-09 14:31:00,,0819.3,5.02,0.00,27.1,26.0,00.0,36.0,28.8,08.3,0000.0,0007.97,0003.18,0002.22
2022-04-09 14:32:00,,0819.2,5.00,0.00,27.1,26.1,00.0,36.0,28.9,08.3,0000.0,0007.95,0003.16,0002.21
2022-04-09 14:33:00,,0819.2,5.00,0.00,27.1,26.1,00.0,36.0,28.8,08.2,0000.0,0008.19,0003.17,0002.20
2022-04-09 14:34:00,,0819.2,5.01,0.00,27.1,26.0,00.0,36.0,28.8,08.0,0000.0,0008.31,0003.18,0002.19
2022-04-09 14:35:00,,0819.2,4.99,0.00,27.1,26.0,00.0,36.0,28.8,07.9,0000.0,0008.50,0003.17,0002.19
2022-04-09 14:36:00,,0819.2,5.00,0.00,27.1,26.0,00.0,36.0,28.9,07.9,0000.0,0008.95,0003.16,0002.19
2022-04-09 14:37:00,,0819.2,5.01,0.00,27.1,26.1,00.0,36.0,28.9,08.2,0000.0,0008.63,0003.17,0002.20
2022-04-09 14:38:00,,0819.2,4.99,0.00,27.1,26.1,00.0,36.1,28.9,08.2,0000.0,0008.23,0003.15,0002.19
2022-04-09 14:39:00,,0819.1,4.99,0.00,27.1,26.1,00.0,36.0,28.9,08.2,0000.0,0007.70,0003.13,0002.18
2022-04-09 14:40:00,,0819.1,5.02,0.00,27.1,26.1,00.0,36.0,28.9,08.1,0000.0,0008.50,0003.17,0002.18
2022-04-09 14:41:00,,0819.1,5.01,0.00,27.1,26.1,00.0,36.0,28.8,08.1,0000.0,0008.79,0003.22,0002.19
2022-04-09 14:42:00,,0819.1,4.99,0.00,27.1,26.1,00.0,36.1,28.8,08.0,0000.0,0008.93,0003.25,0002.20
2022-04-09 14:43:00,,0819.1,4.99,0.00,27.1,26.1,00.0,36.1,28.8,08.1,0000.0,0009.18,0003.28,0002.20
2022-04-09 14:44:00,,0819.0,5.01,0.00,27.1,26.1,00.0,36.1,28.8,08.0,0000.0,0008.64,0003.24,0002.20
2022-04-09 14:45:00,,0819.1,5.01,0.00,27.1,26.1,00.0,36.1,28.9,07.9,0000.0,0008.66,0003.25,0002.21
2022-04-09 14:46:00,,0819.0,4.99,0.00,27.1,26.1,00.0,36.1,28.9,07.8,0000.0,0008.55,0003.28,0002.22
2022-04-09 14:47:00,,0819.1,5.00,0.00,27.1,26.1,00.0,36.1,28.8,07.8,0000.0,0008.76,0003.29,0002.22
2022-04-09 14:48:00,,0819.1,5.02,0.00,27.1,26.1,00.0,36.1,28.8,07.6,0000.0,0009.23,0003.29,0002.21
2022-04-09 14:49:00,,0819.1,5.01,0.00,27.1,26.1,00.0,36.1,28.9,07.7,0000.0,0010.16,0003.32,0002.21
2022-04-09 14:50:00,,0819.1,4.99,0.00,27.1,26.1,00.0,36.1,28.9,07.6,0000.0,0010.24,0003.34,0002.22
2022-04-09 14:51:00,,0819.0,4.99,0.00,27.1,26.1,00.0,36.1,28.9,07.6,0000.0,0009.57,0003.34,0002.23
2022-04-09 14:52:00,,0819.0,5.00,0.00,27.1,26.1,00.0,36.1,28.9,07.7,0000.0,0009.27,0003.29,0002.22
2022-04-09 14:53:00,,0819.0,5.00,0.00,27.1,26.1,00.0,36.1,28.9,07.7,0000.0,0009.65,0003.25,0002.22
2022-04-09 14:54:00,,0819.0,5.00,0.00,27.1,26.1,00.0,36.1,28.9,07.8,0000.0,0009.45,0003.24,0002.22
2022-04-09 14:55:00,,0819.0,5.00,0.00,27.1,26.1,00.0,36.1,28.9,07.7,0000.0,0009.46,0003.29,0002.24
2022-04-09 14:56:00,,0819.0,5.02,0.00,27.1,26.1,00.0,36.1,28.9,07.8,0000.0,0009.34,0003.30,0002.25
2022-04-09 14:57:00,,0819.0,5.00,0.00,27.1,26.2,00.0,36.1,28.9,08.1,0000.0,0009.26,0003.32,0002.26
2022-04-09 14:58:00,,0818.9,4.99,0.00,27.2,26.2,00.0,36.1,28.9,08.1,0000.0,0008.48,0003.30,0002.26
2022-04-09 14:59:00,,0819.0,5.00,0.00,27.2,26.1,00.0,36.1,28.9,08.1,0000.0,0007.87,0003.28,0002.27
